Notices

What's New in latest Release from April 7th, 2021:

- Updated Glossary, including Speed of Maximum Gust, and Total Hourly Precipitation

- Updated national and regional climate services offices contacts and prices information

- Addition of station inventory lists for 1981-2010, 1971-2000, and 1961-1990 Normals.

If you haven't already, please take our survey and provide feedback about our website: https://eccc.sondage-survey.ca/f/LanguageSelection.aspx?s=442ca660-fcf1-47c0-95a9-59707d6fd709

Hourly Data Report for January 22, 2003

TORONTO CITY
ONTARIO

43°40'00.000" N
79°24'00.000" W
112.50 m
6158355
71508
XTO

Download Data

Hourly Data (January 2003)
Hourly Data Report for January 22, 2003
TIME
LST
Temp Definition
°C
Dew Point Definition
°C
Rel Hum Definition
%
Precip. Amount Definition
mm

Wind Dir Definition
10's deg

Wind Spd Definition
km/h
Visibility Definition
km
Stn Press Definition
kPa
Hmdx Definition


Wind Chill Definition


Weather Definition


00:00 -11.2 -15.0 73     0 LegendMM 100.37     LegendNANA
01:00
02:00 -10.4 -13.7 77     0 LegendMM 100.30     LegendNANA
03:00 -12.8 -16.4 74     0 LegendMM 100.37     LegendNANA
04:00 -14.7 -19.6 66     0 LegendMM 100.39     LegendNANA
05:00 -16.1 -21.1 65     0 LegendMM 100.45     LegendNANA
06:00 -17.1 -22.7 62     0 LegendMM 100.50     LegendNANA
07:00 -17.7 -22.8 64     0 LegendMM 100.56     LegendNANA
08:00 -18.5 -23.2 66     0 LegendMM 100.62     LegendNANA
09:00 -18.4 -23.8 62     0 LegendMM 100.67     LegendNANA
10:00
11:00 -18.2 -25.5 53     0 LegendMM 100.74     LegendNANA
12:00 -16.5 -23.9 53     0 LegendMM 100.70     LegendNANA
13:00 -14.1 -24.9 40     0 LegendMM 100.67     LegendNANA
14:00 -13.9 -25.3 38     0 LegendMM 100.62     LegendNANA
15:00 -13.1 -23.1 43     0 LegendMM 100.60     LegendNANA
16:00 -13.5 -24.0 41     0 LegendMM 100.61     LegendNANA
17:00 -13.7 -24.0 42     0 LegendMM 100.63     LegendNANA
18:00 -14.1 -23.3 46     0 LegendMM 100.65     LegendNANA
19:00 -14.4 -21.6 54     0 LegendMM 100.69     LegendNANA
20:00 -14.5 -20.5 60     0 LegendMM 100.66     LegendNANA
21:00 -14.6 -19.5 66     0 LegendMM 100.65     LegendNANA
22:00 -14.3 -18.8 69     0 LegendMM 100.58     LegendNANA
23:00 -14.2 -18.7 69     0 LegendMM 100.52     LegendNANA

Notes on Data Quality.

Legend

  • E = Estimated
  • M = Missing
  • NA = Not Available*
  • [empty] = Indicates an unobserved value
Date modified: